Change the Weather History Date:

Monday, September 12, 2011

  Actual Average Record
Temperature  
Mean Temperature 67 °F 62 °F  
Max Temperature 82 °F 74 °F 91 °F (1961)
Min Temperature 52 °F 49 °F 30 °F (1977)
Degree Days  
Heating Degree Days 0 5  
Month to date heating degree days 18 42  
Since 1 July heating degree days 25 90  
Cooling Degree Days 2 1  
Month to date cooling degree days 31 25  
Year to date cooling degree days 518 438  
Growing Degree Days 16 (Base 50)    
Moisture  
Dew Point 57 °F    
Average Humidity 73    
Maximum Humidity 100    
Minimum Humidity 45    
Precipitation  
Precipitation 0.00 in 0.11 in 4.12 in (1960)
Month to date precipitation 2.50 1.23  
Year to date precipitation 35.47 27.50  
Snow  
Snow 0.00 in 0.00 in 0.00 in (2002)
Month to date snowfall 0.0 0.0  
Since 1 July snowfall 0.0 0.0  
Since 1 September snowfall 0.0 0.0  
Snow Depth 0.00 in    
Sea Level Pressure  
Sea Level Pressure 29.95 in    
Wind  
Wind Speed 2 mph (SSW)    
Max Wind Speed 12 mph    
Max Gust Speed 16 mph    
Visibility 10 miles    
Events      
T = Trace of Precipitation, MM = Missing Value Source: NWS Daily Summary

Daily Weather History Graph

Daily Weather History Graph

Search for Another Location

Airport or City:

Trip Planner

Search our weather history database for the weather conditions in past years. The results will help you decide how hot, cold, wet, or windy it might be!

Date:

Astronomy

Sep. 12, 2011 Rise Set
Actual Time 6:21 AM EDT 7:02 PM EDT
Civil Twilight 5:53 AM EDT 7:30 PM EDT
Nautical Twilight 5:19 AM EDT 8:04 PM EDT
Astronomical Twilight 4:43 AM EDT 8:39 PM EDT
Moon 6:46 PM EDT (9/12) 6:37 AM EDT (9/12)
Length of Visible Light 13h 37m
Length of Day
12h 40m
Full, 100% of the Moon is Illuminated
Sep 12
Full
Sep 20
Last Quarter
Sep 27
New
Oct 3
First Quarter
Oct 11
Full

Hourly Weather History & Observations

Time (EDT) Temp. Heat Index Dew Point Humidity Pressure Visibility Wind Dir Wind Speed Gust Speed Precip Events Conditions
12:51 AM 57.0 °F - 55.0 °F 93% 30.00 in 10.0 mi South 4.6 mph - N/A   Clear
1:51 AM 55.9 °F - 54.0 °F 93% 29.99 in 10.0 mi Calm Calm - N/A   Clear
2:51 AM 54.0 °F - 53.1 °F 97% 29.98 in 10.0 mi Calm Calm - N/A   Clear
3:51 AM 52.0 °F - 52.0 °F 100% 29.98 in 10.0 mi Calm Calm - N/A   Clear
4:51 AM 53.1 °F - 52.0 °F 96% 29.97 in 10.0 mi Calm Calm - N/A   Clear
5:51 AM 55.9 °F - 55.0 °F 97% 29.96 in 10.0 mi Calm Calm - N/A   Clear
6:51 AM 53.1 °F - 53.1 °F 100% 29.97 in 10.0 mi Calm Calm - N/A   Clear
7:51 AM 57.0 °F - 55.9 °F 96% 29.98 in 10.0 mi Variable 3.5 mph - N/A   Clear
8:51 AM 64.0 °F - 57.9 °F 80% 29.98 in 10.0 mi WSW 5.8 mph - N/A   Clear
9:51 AM 69.1 °F - 60.1 °F 73% 29.98 in 10.0 mi Calm Calm - N/A   Clear
10:51 AM 73.0 °F - 60.1 °F 64% 29.98 in 10.0 mi Calm Calm - N/A   Clear
11:51 AM 75.9 °F - 59.0 °F 56% 29.96 in 10.0 mi Variable 4.6 mph - N/A   Clear
12:51 PM 78.1 °F - 57.9 °F 50% 29.94 in 10.0 mi SSW 4.6 mph - N/A   Clear
1:51 PM 80.1 °F 80.4 °F 57.0 °F 45% 29.94 in 10.0 mi West 5.8 mph - N/A   Clear
2:51 PM 81.0 °F 81.1 °F 57.9 °F 45% 29.92 in 10.0 mi Variable 6.9 mph - N/A   Scattered Clouds
3:51 PM 81.0 °F 81.0 °F 57.0 °F 44% 29.90 in 10.0 mi WSW 4.6 mph - N/A   Partly Cloudy
4:51 PM 81.0 °F 81.1 °F 57.9 °F 45% 29.90 in 10.0 mi SW 4.6 mph - N/A   Partly Cloudy
5:51 PM 79.0 °F - 57.9 °F 48% 29.91 in 10.0 mi SSW 5.8 mph - N/A   Clear
6:51 PM 72.0 °F - 61.0 °F 68% 29.92 in 10.0 mi SSE 4.6 mph - N/A   Partly Cloudy
7:51 PM 68.0 °F - 63.0 °F 84% 29.93 in 10.0 mi South 3.5 mph - N/A   Partly Cloudy
8:51 PM 64.9 °F - 62.1 °F 90% 29.95 in 10.0 mi Calm Calm - N/A   Clear
9:51 PM 63.0 °F - 62.1 °F 97% 29.95 in 10.0 mi Calm Calm - N/A   Clear
10:51 PM 61.0 °F - 60.1 °F 97% 29.96 in 9.0 mi Calm Calm - N/A   Clear
11:51 PM 59.0 °F - 57.9 °F 96% 29.95 in 8.0 mi Calm Calm - N/A   Clear